Kineis-1E

operational
NORAD ID: 60083 Int'l Des: 2024-114 Owner: KINEIS Country: F
LEOCIRCULARRETROGRADESSO

Über Kineis-1E

Beschreibung wird geladen...

Live-Position

3D-Globus wird geladen...

Nächste Überflüge

Höhenverlauf

Altitude vs Time

uPlot chart will show altitude changes over time

Zweizeiliger Elementsatz

1 60083U 24114E 26062.19742073 .00001328 00000-0 18081-3 0 9993
2 60083 97.9935 86.7631 0002475 95.2504 264.8990 14.80405578 91702
Epoch: 3. März 2026 • Age: 10 hours

Aktueller Status

Höhe 638.7 km
Geschwindigkeit 7.55 km/s
Subsatellitenpunkt 71.74°N, 20.44°W
Startdatum 20. Juni 2024
Alter 1.7 years
Typ other

Technische Details

Klassifizierung Payload
Masse 28.00 kg
Trockenmasse 28.00 kg
Gesamtmasse 28.00 kg
Länge 0.40 m
Durchmesser 0.20 m
Spannweite 1.60 m
Form Box+ 2 pan + ant
Hersteller KINEIS
Bus-Typ Cubesat 16U
Phasenstatus In Orbit
Besitzer/Staat KINEIS/F

Große Konstellationen

Loading constellations...